QPF
0.09 0.10 0.12 0.15 0.14 0.11 0.12 0.12 0.11 0.10 0.10 0.11 0.10 0.10 0.08 0.05 0.05 0.05 0.06 0.07 0.08 0.07 0.05 0.05 0.05 0.06 0.05 0.04 0.04 0.04 0.03 0.03 0.03 0.02 0.02 0.03 0.04 0.04 0.04 0.04 0.03 0.02 0.01
0.12 0.12 0.12 0.13 0.13 0.12 0.10 0.11 0.10 0.09 0.09 0.09 0.09 0.09 0.08 0.06 0.06 0.06 0.07 0.07 0.06 0.06 0.04 0.04 0.04 0.04 0.05 0.04 0.04 0.04 0.04 0.03 0.03 0.03 0.02 0.03 0.03 0.04 0.04 0.05 0.04 0.03 0.02
0.10 0.12 0.12 0.14 0.14 0.12 0.09 0.09 0.09 0.08 0.08 0.09 0.10 0.09 0.07 0.06 0.05 0.04 0.04 0.04 0.04 0.04 0.04 0.03 0.03 0.03 0.04 0.04 0.04 0.04 0.04 0.04 0.03 0.03 0.03 0.03 0.03 0.03 0.04 0.05 0.05 0.05 0.04
0.11 0.11 0.12 0.11 0.12 0.11 0.08 0.08 0.08 0.08 0.08 0.08 0.08 0.09 0.07 0.06 0.05 0.04 0.04 0.04 0.04 0.04 0.04 0.03 0.02 0.02 0.03 0.03 0.04 0.04 0.05 0.05 0.04 0.04 0.04 0.03 0.03 0.03 0.03 0.04 0.05 0.06 0.05
0.13 0.11 0.11 0.10 0.10 0.10 0.08 0.07 0.07 0.08 0.08 0.08 0.08 0.07 0.07 0.07 0.06 0.04 0.04 0.03 0.03 0.03 0.04 0.03 0.03 0.03 0.03 0.03 0.04 0.05 0.05 0.06 0.05 0.05 0.04 0.04 0.04 0.03 0.03 0.03 0.04 0.05 0.06
0.11 0.11 0.10 0.10 0.10 0.09 0.07 0.07 0.07 0.08 0.08 0.08 0.07 0.06 0.06 0.06 0.07 0.06 0.05 0.04 0.03 0.03 0.03 0.03 0.03 0.03 0.03 0.03 0.04 0.05 0.04 0.04 0.05 0.05 0.04 0.04 0.04 0.03 0.03 0.03 0.04 0.05 0.06
0.08 0.09 0.09 0.09 0.10 0.10 0.08 0.08 0.07 0.07 0.08 0.07 0.06 0.06 0.06 0.06 0.06 0.05 0.05 0.04 0.03 0.03 0.03 0.03 0.03 0.03 0.03 0.03 0.03 0.04 0.03 0.03 0.03 0.04 0.05 0.04 0.03 0.03 0.03 0.03 0.04 0.04 0.04
0.07 0.07 0.07 0.07 0.07 0.09 0.09 0.08 0.08 0.08 0.07 0.06 0.06 0.06 0.06 0.06 0.05 0.05 0.05 0.04 0.04 0.04 0.03 0.03 0.03 0.03 0.02 0.02 0.03 0.03 0.02 0.02 0.02 0.02 0.02 0.03 0.02 0.02 0.03 0.04 0.04 0.04 0.04
0.07 0.06 0.06 0.06 0.06 0.06 0.07 0.07 0.07 0.08 0.06 0.05 0.05 0.06 0.06 0.06 0.05 0.04 0.04 0.04 0.04 0.04 0.03 0.03 0.03 0.02 0.02 0.03 0.03 0.03 0.03 0.02 0.01 0.01 0.02 0.02 0.03 0.02 0.03 0.04 0.05 0.06 0.05
0.06 0.06 0.06 0.05 0.05 0.05 0.06 0.07 0.07 0.07 0.06 0.05 0.05 0.05 0.05 0.05 0.05 0.05 0.05 0.04 0.04 0.04 0.03 0.03 0.03 0.02 0.02 0.03 0.03 0.04 0.04 0.02 0.01 0.01 0.01 0.02 0.02 0.02 0.02 0.02 0.03 0.04 0.04
0.06 0.06 0.05 0.05 0.05 0.05 0.05 0.05 0.06 0.06 0.06 0.05 0.05 0.05 0.04 0.04 0.04 0.04 0.04 0.04 0.04 0.04 0.03 0.03 0.03 0.03 0.03 0.02 0.02 0.03 0.03 0.03 0.02 0.01 0.02 0.02 0.03 0.03 0.02 0.02 0.03 0.03 0.04
0.06 0.06 0.05 0.05 0.04 0.04 0.05 0.05 0.06 0.05 0.04 0.05 0.05 0.05 0.04 0.04 0.03 0.04 0.04 0.03 0.04 0.03 0.03 0.03 0.02 0.03 0.03 0.02 0.02 0.02 0.02 0.01 0.01 0.01 0.01 0.02 0.03 0.03 0.03 0.03 0.03 0.03 0.03
0.05 0.06 0.06 0.05 0.04 0.04 0.04 0.05 0.05 0.04 0.04 0.05 0.06 0.05 0.04 0.03 0.03 0.03 0.03 0.02 0.02 0.02 0.02 0.02 0.02 0.02 0.02 0.01 0.01 0.01 0.01 0.01 0.01 0.01 0.02 0.02 0.02 0.03 0.04 0.04 0.04 0.04 0.04
0.03 0.04 0.04 0.03 0.04 0.04 0.04 0.04 0.05 0.05 0.04 0.05 0.07 0.05 0.03 0.02 0.02 0.02 0.02 0.01 0.02 0.01 0.01 0.01 0.01 0.01 0.01 0.01 0.01 0.01 0.01 0.01 0.01 0.02 0.02 0.02 0.02 0.03 0.03 0.04 0.04 0.04 0.04
0.03 0.03 0.03 0.03 0.03 0.03 0.03 0.04 0.05 0.05 0.05 0.05 0.06 0.04 0.02 0.02 0.02 0.02 0.02 0.01 0.02 0.01 0.01 0.01 0.01 0.01 0.01 0.00 0.00 0.01 0.01 0.01 0.01 0.02 0.02 0.02 0.03 0.03 0.03 0.03 0.04 0.04 0.04
0.02 0.03 0.03 0.03 0.03 0.02 0.03 0.04 0.06 0.06 0.05 0.05 0.05 0.03 0.02 0.02 0.02 0.02 0.02 0.02 0.01 0.01 0.01 0.01 0.01 0.01 0.01 0.01 0.01 0.01 0.01 0.02 0.02 0.02 0.02 0.02 0.03 0.03 0.03 0.03 0.04 0.04 0.04
0.02 0.02 0.03 0.03 0.03 0.03 0.03 0.03 0.05 0.06 0.05 0.05 0.05 0.03 0.02 0.02 0.02 0.02 0.01 0.01 0.01 0.01 0.01 0.01 0.01 0.01 0.01 0.01 0.01 0.01 0.01 0.02 0.02 0.02 0.02 0.03 0.03 0.03 0.03 0.03 0.03 0.04 0.03
0.02 0.02 0.02 0.03 0.03 0.02 0.02 0.03 0.04 0.05 0.05 0.05 0.04 0.03 0.02 0.02 0.02 0.01 0.01 0.01 0.01 0.01 0.01 0.01 0.01 0.01 0.01 0.01 0.01 0.01 0.01 0.01 0.01 0.02 0.02 0.03 0.03 0.03 0.03 0.04 0.03 0.03 0.03
0.01 0.02 0.02 0.02 0.02 0.02 0.02 0.03 0.04 0.05 0.05 0.04 0.04 0.03 0.03 0.02 0.02 0.02 0.02 0.01 0.01 0.01 0.01 0.01 0.01 0.01 0.01 0.01 0.01 0.01 0.01 0.01 0.01 0.02 0.02 0.02 0.02 0.03 0.03 0.03 0.03 0.03 0.03
0.02 0.02 0.02 0.02 0.03 0.03 0.03 0.04 0.05 0.05 0.04 0.03 0.02 0.02 0.03 0.02 0.02 0.02 0.01 0.01 0.01 0.01 0.01 0.01 0.01 0.01 0.01 0.01 0.01 0.01 0.01 0.01 0.01 0.02 0.02 0.02 0.02 0.03 0.03 0.03 0.03 0.03 0.03
0.02 0.02 0.02 0.02 0.03 0.03 0.03 0.03 0.04 0.05 0.04 0.03 0.02 0.02 0.02 0.01 0.01 0.02 0.02 0.01 0.01 0.01 0.01 0.01 0.01 0.01 0.01 0.01 0.01 0.01 0.01 0.01 0.01 0.01 0.01 0.01 0.02 0.03 0.03 0.03 0.03 0.03 0.04
0.02 0.02 0.02 0.02 0.02 0.02 0.03 0.03 0.03 0.04 0.04 0.03 0.02 0.03 0.02 0.01 0.01 0.02 0.02 0.02 0.01 0.01 0.01 0.01 0.01 0.01 0.01 0.01 0.01 0.01 0.01 0.01 0.01 0.01 0.01 0.01 0.01 0.02 0.02 0.03 0.03 0.03 0.03
0.02 0.02 0.02 0.01 0.02 0.02 0.02 0.02 0.03 0.03 0.03 0.02 0.02 0.02 0.02 0.01 0.01 0.02 0.03 0.02 0.02 0.02 0.01 0.01 0.01 0.01 0.00 0.00 0.00 0.01 0.01 0.01 0.01 0.01 0.02 0.01 0.01 0.01 0.02 0.02 0.03 0.03 0.03
0.02 0.02 0.01 0.01 0.01 0.01 0.01 0.02 0.02 0.02 0.02 0.02 0.02 0.02 0.01 0.01 0.01 0.02 0.03 0.02 0.02 0.02 0.01 0.01 0.01 0.01 0.00 0.00 0.00 0.00 0.01 0.01 0.01 0.02 0.02 0.02 0.02 0.02 0.02 0.02 0.02 0.03 0.03
0.01 0.01 0.01 0.01 0.01 0.01 0.01 0.01 0.01 0.01 0.01 0.01 0.01 0.01 0.01 0.01 0.01 0.02 0.02 0.02 0.02 0.01 0.01 0.01 0.01 0.01 0.00 0.00 0.00 0.00 0.01 0.01 0.01 0.01 0.02 0.01 0.01 0.01 0.02 0.02 0.02 0.02 0.03
0.01 0.01 0.02 0.01 0.01 0.01 0.01 0.01 0.01 0.01 0.01 0.01 0.01 0.01 0.01 0.01 0.01 0.01 0.01 0.02 0.02 0.01 0.01 0.01 0.01 0.01 0.00 0.00 0.00 0.00 0.00 0.01 0.01 0.01 0.01 0.01 0.01 0.01 0.01 0.02 0.02 0.02 0.02
MSLP
1003.92 1003.08 1002.29 1001.61 1001.13 1000.90 1000.99 1001.40 1002.13 1003.14 1004.35 1005.67 1007.03 1008.33 1009.55 1010.64 1011.61 1012.49 1013.30 1014.07 1014.81 1015.53 1016.21 1016.84 1017.38 1017.82 1018.17 1018.43 1018.64 1018.84 1019.08 1019.37 1019.74 1020.16 1020.62 1021.06 1021.44 1021.70 1021.81 1021.76 1021.55 1021.22 1020.81
1003.28 1002.50 1001.79 1001.23 1000.88 1000.79 1000.99 1001.50 1002.30 1003.34 1004.55 1005.84 1007.15 1008.41 1009.58 1010.63 1011.59 1012.48 1013.32 1014.14 1014.95 1015.75 1016.52 1017.22 1017.84 1018.35 1018.75 1019.05 1019.28 1019.47 1019.68 1019.93 1020.23 1020.58 1020.96 1021.33 1021.62 1021.82 1021.87 1021.77 1021.53 1021.17 1020.73
1002.63 1001.91 1001.32 1000.89 1000.68 1000.73 1001.06 1001.66 1002.51 1003.56 1004.74 1006.00 1007.25 1008.45 1009.57 1010.60 1011.56 1012.47 1013.36 1014.25 1015.14 1016.03 1016.89 1017.69 1018.39 1018.98 1019.44 1019.78 1020.03 1020.23 1020.41 1020.62 1020.86 1021.14 1021.44 1021.72 1021.94 1022.06 1022.05 1021.90 1021.62 1021.22 1020.76
1001.91 1001.30 1000.85 1000.58 1000.54 1000.74 1001.19 1001.88 1002.77 1003.83 1004.99 1006.19 1007.38 1008.52 1009.60 1010.62 1011.59 1012.53 1013.48 1014.45 1015.44 1016.42 1017.37 1018.26 1019.04 1019.70 1020.21 1020.58 1020.85 1021.05 1021.22 1021.39 1021.58 1021.79 1022.02 1022.23 1022.38 1022.44 1022.38 1022.18 1021.87 1021.44 1020.94
1001.13 1000.66 1000.37 1000.29 1000.44 1000.81 1001.40 1002.18 1003.13 1004.19 1005.33 1006.48 1007.62 1008.72 1009.76 1010.77 1011.77 1012.76 1013.77 1014.82 1015.89 1016.95 1017.98 1018.93 1019.77 1020.46 1021.01 1021.40 1021.68 1021.88 1022.03 1022.17 1022.32 1022.49 1022.67 1022.83 1022.93 1022.95 1022.85 1022.63 1022.29 1021.84 1021.31
1000.29 999.99 999.91 1000.04 1000.40 1000.96 1001.70 1002.59 1003.60 1004.68 1005.80 1006.92 1008.02 1009.08 1010.12 1011.13 1012.15 1013.18 1014.26 1015.37 1016.50 1017.62 1018.69 1019.67 1020.53 1021.24 1021.79 1022.19 1022.46 1022.64 1022.78 1022.90 1023.03 1023.17 1023.32 1023.46 1023.54 1023.55 1023.44 1023.22 1022.86 1022.40 1021.85
999.45 999.35 999.49 999.86 1000.44 1001.20 1002.11 1003.12 1004.20 1005.32 1006.44 1007.54 1008.61 1009.66 1010.68 1011.70 1012.74 1013.81 1014.93 1016.08 1017.24 1018.38 1019.47 1020.45 1021.29 1021.98 1022.51 1022.88 1023.13 1023.30 1023.42 1023.52 1023.64 1023.78 1023.93 1024.06 1024.16 1024.17 1024.08 1023.87 1023.53 1023.06 1022.50
998.72 998.83 999.20 999.81 1000.61 1001.58 1002.65 1003.78 1004.95 1006.11 1007.24 1008.34 1009.39 1010.42 1011.44 1012.46 1013.52 1014.61 1015.74 1016.90 1018.07 1019.20 1020.25 1021.20 1022.00 1022.65 1023.13 1023.46 1023.68 1023.82 1023.93 1024.03 1024.15 1024.29 1024.45 1024.60 1024.72 1024.76 1024.70 1024.51 1024.19 1023.75 1023.18
998.24 998.54 999.13 999.96 1000.98 1002.12 1003.34 1004.59 1005.83 1007.03 1008.18 1009.28 1010.33 1011.34 1012.35 1013.37 1014.43 1015.51 1016.64 1017.78 1018.91 1020.00 1021.00 1021.89 1022.63 1023.21 1023.64 1023.93 1024.11 1024.23 1024.32 1024.42 1024.54 1024.69 1024.87 1025.04 1025.18 1025.25 1025.22 1025.07 1024.78 1024.36 1023.81
998.15 998.62 999.39 1000.40 1001.58 1002.87 1004.21 1005.55 1006.84 1008.08 1009.24 1010.33 1011.37 1012.38 1013.37 1014.37 1015.40 1016.47 1017.56 1018.66 1019.73 1020.75 1021.69 1022.50 1023.17 1023.69 1024.06 1024.31 1024.47 1024.57 1024.65 1024.74 1024.86 1025.02 1025.20 1025.38 1025.53 1025.62 1025.61 1025.49 1025.23 1024.84 1024.32
998.57 999.17 1000.06 1001.19 1002.48 1003.86 1005.26 1006.65 1007.98 1009.22 1010.39 1011.47 1012.49 1013.47 1014.44 1015.42 1016.41 1017.43 1018.46 1019.49 1020.50 1021.44 1022.30 1023.04 1023.64 1024.11 1024.44 1024.66 1024.80 1024.89 1024.96 1025.05 1025.16 1025.30 1025.47 1025.64 1025.78 1025.87 1025.87 1025.76 1025.52 1025.16 1024.67
999.58 1000.24 1001.19 1002.36 1003.68 1005.08 1006.50 1007.89 1009.21 1010.45 1011.60 1012.66 1013.66 1014.61 1015.54 1016.47 1017.41 1018.37 1019.33 1020.29 1021.21 1022.08 1022.86 1023.54 1024.09 1024.52 1024.83 1025.04 1025.17 1025.26 1025.32 1025.40 1025.49 1025.60 1025.73 1025.86 1025.97 1026.02 1026.00 1025.89 1025.66 1025.32 1024.87
1001.14 1001.81 1002.74 1003.89 1005.17 1006.53 1007.91 1009.25 1010.54 1011.74 1012.85 1013.88 1014.84 1015.76 1016.65 1017.53 1018.41 1019.30 1020.18 1021.05 1021.90 1022.69 1023.40 1024.02 1024.54 1024.95 1025.26 1025.47 1025.61 1025.70 1025.76 1025.81 1025.87 1025.94 1026.01 1026.08 1026.13 1026.13 1026.07 1025.93 1025.71 1025.38 1024.97
1003.19 1003.80 1004.66 1005.71 1006.90 1008.16 1009.45 1010.71 1011.92 1013.06 1014.13 1015.12 1016.04 1016.92 1017.77 1018.59 1019.40 1020.21 1021.02 1021.81 1022.57 1023.29 1023.94 1024.53 1025.02 1025.43 1025.74 1025.97 1026.12 1026.22 1026.27 1026.31 1026.33 1026.34 1026.34 1026.33 1026.30 1026.24 1026.13 1025.96 1025.72 1025.41 1025.02
1005.54 1006.06 1006.80 1007.72 1008.76 1009.89 1011.05 1012.20 1013.33 1014.40 1015.41 1016.36 1017.25 1018.09 1018.88 1019.65 1020.40 1021.14 1021.86 1022.56 1023.25 1023.90 1024.51 1025.06 1025.54 1025.95 1026.27 1026.52 1026.69 1026.80 1026.85 1026.86 1026.83 1026.78 1026.71 1026.63 1026.52 1026.39 1026.22 1026.02 1025.77 1025.46 1025.11
1008.00 1008.41 1009.01 1009.77 1010.66 1011.64 1012.66 1013.70 1014.73 1015.73 1016.69 1017.60 1018.45 1019.25 1020.00 1020.72 1021.41 1022.07 1022.71 1023.34 1023.95 1024.54 1025.09 1025.61 1026.08 1026.49 1026.82 1027.08 1027.27 1027.38 1027.43 1027.41 1027.35 1027.25 1027.12 1026.96 1026.79 1026.60 1026.39 1026.16 1025.90 1025.61 1025.28
1010.37 1010.67 1011.14 1011.76 1012.49 1013.32 1014.22 1015.15 1016.09 1017.03 1017.94 1018.81 1019.63 1020.40 1021.11 1021.78 1022.41 1023.00 1023.57 1024.13 1024.66 1025.19 1025.69 1026.18 1026.62 1027.02 1027.36 1027.63 1027.82 1027.93 1027.97 1027.94 1027.84 1027.70 1027.52 1027.31 1027.10 1026.87 1026.64 1026.39 1026.14 1025.87 1025.57
1012.52 1012.73 1013.09 1013.58 1014.20 1014.91 1015.69 1016.54 1017.41 1018.29 1019.16 1019.99 1020.79 1021.52 1022.21 1022.83 1023.41 1023.94 1024.44 1024.92 1025.39 1025.85 1026.30 1026.74 1027.15 1027.53 1027.85 1028.11 1028.30 1028.41 1028.43 1028.38 1028.27 1028.10 1027.90 1027.67 1027.43 1027.19 1026.96 1026.72 1026.49 1026.24 1025.97
1014.36 1014.53 1014.81 1015.22 1015.75 1016.37 1017.08 1017.85 1018.67 1019.51 1020.34 1021.15 1021.91 1022.62 1023.27 1023.86 1024.39 1024.86 1025.31 1025.72 1026.12 1026.52 1026.91 1027.30 1027.66 1028.00 1028.30 1028.54 1028.70 1028.79 1028.81 1028.74 1028.62 1028.44 1028.23 1028.00 1027.77 1027.54 1027.33 1027.12 1026.92 1026.70 1026.47
1015.93 1016.07 1016.33 1016.70 1017.17 1017.75 1018.40 1019.13 1019.90 1020.70 1021.50 1022.27 1023.01 1023.69 1024.31 1024.86 1025.34 1025.77 1026.16 1026.52 1026.86 1027.19 1027.52 1027.85 1028.16 1028.45 1028.70 1028.90 1029.03 1029.10 1029.09 1029.02 1028.89 1028.71 1028.52 1028.31 1028.10 1027.91 1027.73 1027.56 1027.40 1027.22 1027.02
1017.28 1017.44 1017.71 1018.07 1018.53 1019.07 1019.70 1020.38 1021.12 1021.88 1022.64 1023.38 1024.08 1024.73 1025.31 1025.82 1026.27 1026.66 1027.00 1027.31 1027.59 1027.87 1028.14 1028.40 1028.65 1028.88 1029.07 1029.22 1029.31 1029.34 1029.31 1029.23 1029.10 1028.94 1028.76 1028.58 1028.42 1028.27 1028.14 1028.02 1027.90 1027.77 1027.61
1018.52 1018.73 1019.02 1019.40 1019.86 1020.40 1021.00 1021.66 1022.35 1023.06 1023.78 1024.47 1025.13 1025.73 1026.27 1026.75 1027.16 1027.51 1027.82 1028.08 1028.32 1028.54 1028.75 1028.95 1029.13 1029.29 1029.42 1029.51 1029.56 1029.55 1029.50 1029.40 1029.28 1029.14 1028.99 1028.85 1028.73 1028.63 1028.55 1028.48 1028.41 1028.33 1028.21
1019.75 1020.02 1020.35 1020.76 1021.23 1021.76 1022.34 1022.95 1023.60 1024.25 1024.91 1025.54 1026.14 1026.69 1027.19 1027.63 1028.00 1028.33 1028.60 1028.83 1029.03 1029.20 1029.35 1029.49 1029.61 1029.70 1029.76 1029.79 1029.78 1029.74 1029.66 1029.56 1029.44 1029.32 1029.21 1029.11 1029.04 1028.99 1028.97 1028.95 1028.93 1028.90 1028.82
1021.04 1021.36 1021.74 1022.17 1022.64 1023.15 1023.69 1024.26 1024.84 1025.43 1026.01 1026.58 1027.11 1027.61 1028.06 1028.45 1028.79 1029.09 1029.33 1029.53 1029.69 1029.82 1029.92 1029.99 1030.05 1030.07 1030.07 1030.04 1029.99 1029.91 1029.82 1029.72 1029.61 1029.52 1029.45 1029.40 1029.38 1029.38 1029.41 1029.44 1029.47 1029.48 1029.45
1022.40 1022.76 1023.16 1023.60 1024.07 1024.55 1025.04 1025.55 1026.06 1026.57 1027.07 1027.56 1028.02 1028.46 1028.85 1029.21 1029.52 1029.78 1029.99 1030.16 1030.28 1030.37 1030.42 1030.44 1030.43 1030.40 1030.34 1030.26 1030.17 1030.07 1029.97 1029.88 1029.80 1029.74 1029.71 1029.71 1029.75 1029.81 1029.89 1029.97 1030.05 1030.10 1030.12
1023.80 1024.18 1024.59 1025.02 1025.46 1025.90 1026.34 1026.77 1027.20 1027.63 1028.05 1028.46 1028.86 1029.23 1029.57 1029.88 1030.16 1030.39 1030.57 1030.70 1030.79 1030.84 1030.84 1030.81 1030.75 1030.66 1030.56 1030.44 1030.32 1030.21 1030.12 1030.04 1029.99 1029.98 1030.01 1030.06 1030.16 1030.27 1030.41 1030.54 1030.66 1030.76 1030.82
Thickness
5493 5494 5495 5496 5496 5497 5498 5498 5499 5499 5500 5501 5503 5504 5505 5506 5507 5508 5508 5509 5511 5512 5512 5514 5515 5515 5515 5515 5516 5517 5516 5516 5516 5517 5516 5515 5514 5514 5514 5515 5516 5517 5519
5486 5488 5489 5489 5489 5491 5492 5492 5492 5493 5493 5494 5495 5496 5497 5499 5500 5501 5502 5502 5504 5505 5505 5505 5506 5505 5506 5507 5507 5508 5508 5507 5506 5507 5506 5505 5505 5504 5505 5506 5507 5508 5510
5479 5481 5482 5482 5483 5484 5485 5485 5485 5485 5486 5486 5487 5489 5490 5491 5493 5494 5495 5496 5497 5497 5497 5497 5497 5497 5498 5498 5498 5499 5498 5497 5497 5496 5496 5495 5495 5495 5496 5497 5497 5499 5500
5472 5474 5474 5475 5476 5477 5477 5477 5478 5478 5479 5479 5480 5481 5482 5484 5485 5486 5487 5488 5489 5488 5488 5488 5488 5488 5489 5489 5489 5489 5489 5488 5488 5487 5487 5487 5486 5486 5486 5488 5489 5490 5491
5466 5467 5468 5469 5469 5469 5469 5469 5470 5471 5471 5471 5472 5474 5475 5477 5478 5479 5480 5480 5480 5480 5479 5479 5478 5478 5479 5479 5479 5480 5479 5479 5478 5478 5478 5478 5478 5477 5477 5477 5479 5481 5483
5459 5460 5461 5462 5462 5462 5462 5462 5462 5463 5463 5463 5465 5467 5468 5469 5470 5471 5472 5472 5472 5472 5471 5470 5470 5470 5469 5469 5469 5469 5469 5469 5469 5468 5468 5469 5469 5468 5467 5467 5468 5470 5474
5452 5454 5454 5454 5454 5454 5454 5454 5454 5455 5455 5456 5458 5459 5461 5462 5462 5463 5464 5464 5464 5464 5462 5462 5462 5461 5460 5461 5461 5461 5460 5459 5459 5459 5459 5459 5459 5459 5458 5459 5459 5460 5462
5447 5448 5448 5447 5447 5447 5447 5446 5446 5447 5447 5448 5449 5451 5452 5453 5454 5455 5455 5456 5456 5455 5454 5454 5454 5452 5452 5452 5452 5452 5451 5451 5450 5451 5451 5450 5449 5448 5448 5449 5450 5451 5454
5442 5442 5441 5440 5441 5440 5439 5438 5438 5438 5439 5440 5441 5442 5443 5445 5445 5447 5447 5448 5447 5447 5445 5444 5444 5443 5443 5443 5443 5443 5442 5442 5441 5441 5440 5439 5439 5439 5439 5440 5441 5444 5447
5435 5434 5434 5433 5433 5433 5432 5431 5431 5431 5431 5433 5433 5434 5435 5436 5437 5438 5438 5439 5439 5438 5437 5435 5434 5434 5433 5433 5434 5434 5434 5434 5433 5433 5433 5432 5432 5432 5432 5432 5433 5434 5436
5427 5427 5427 5426 5426 5425 5424 5424 5423 5424 5424 5425 5426 5426 5427 5427 5428 5429 5429 5430 5430 5429 5428 5427 5425 5424 5424 5424 5424 5424 5423 5423 5424 5425 5425 5425 5425 5425 5425 5424 5424 5424 5426
5420 5420 5420 5419 5419 5418 5417 5416 5416 5416 5416 5417 5418 5418 5417 5418 5418 5419 5419 5419 5419 5419 5418 5417 5416 5415 5414 5414 5414 5413 5413 5414 5415 5416 5417 5417 5417 5416 5417 5417 5417 5418 5418
5413 5412 5412 5411 5410 5409 5409 5408 5408 5408 5408 5408 5409 5409 5408 5408 5409 5408 5409 5409 5410 5410 5408 5407 5406 5405 5404 5404 5403 5403 5404 5405 5406 5407 5407 5407 5406 5406 5408 5409 5410 5411 5412
5406 5405 5403 5402 5401 5400 5400 5400 5400 5399 5400 5400 5400 5400 5400 5399 5399 5399 5400 5400 5400 5399 5399 5397 5396 5395 5394 5394 5394 5394 5394 5395 5395 5396 5396 5397 5397 5398 5400 5401 5402 5404 5406
5398 5396 5395 5394 5393 5392 5391 5390 5390 5390 5390 5390 5390 5391 5391 5391 5390 5390 5391 5391 5391 5390 5389 5387 5386 5385 5385 5385 5384 5384 5384 5385 5385 5385 5386 5387 5389 5390 5392 5393 5394 5395 5397
5390 5389 5387 5386 5385 5384 5383 5382 5381 5381 5381 5381 5381 5381 5381 5381 5381 5381 5381 5381 5381 5380 5380 5379 5378 5376 5376 5375 5375 5375 5375 5375 5374 5375 5376 5377 5379 5380 5382 5384 5385 5386 5388
5381 5380 5379 5378 5377 5376 5375 5375 5374 5373 5372 5372 5372 5372 5372 5372 5372 5372 5372 5372 5372 5371 5371 5369 5368 5366 5366 5365 5365 5365 5365 5365 5365 5365 5366 5367 5369 5371 5373 5375 5376 5378 5379
5373 5372 5371 5371 5369 5368 5368 5367 5366 5366 5365 5363 5362 5362 5362 5362 5363 5363 5363 5363 5363 5362 5361 5359 5358 5357 5356 5355 5355 5355 5355 5356 5356 5356 5357 5358 5359 5362 5364 5366 5367 5369 5370
5365 5364 5363 5362 5361 5360 5360 5359 5358 5357 5356 5355 5354 5353 5353 5353 5353 5353 5353 5354 5354 5352 5351 5350 5348 5347 5347 5346 5346 5346 5346 5347 5347 5348 5349 5349 5351 5353 5355 5356 5358 5360 5361
5357 5355 5354 5354 5353 5352 5352 5351 5350 5348 5347 5346 5346 5345 5344 5344 5345 5344 5343 5343 5343 5342 5341 5340 5339 5338 5337 5337 5337 5337 5337 5338 5339 5339 5340 5341 5342 5344 5346 5348 5349 5351 5353
5349 5348 5346 5346 5345 5344 5343 5342 5342 5340 5339 5337 5336 5335 5335 5335 5334 5333 5333 5333 5332 5332 5331 5330 5330 5329 5328 5328 5328 5329 5329 5330 5331 5331 5332 5334 5335 5336 5338 5340 5342 5343 5345
5340 5340 5339 5338 5336 5335 5335 5334 5332 5331 5329 5328 5327 5326 5325 5325 5324 5324 5323 5323 5322 5322 5321 5321 5321 5320 5320 5320 5320 5321 5321 5322 5323 5324 5325 5326 5327 5329 5331 5333 5335 5336 5337
5333 5332 5331 5330 5329 5328 5326 5325 5324 5322 5321 5320 5319 5318 5317 5316 5315 5315 5314 5314 5313 5313 5313 5312 5312 5312 5312 5312 5312 5312 5313 5314 5315 5316 5317 5319 5320 5322 5324 5326 5328 5329 5330
5325 5325 5323 5322 5321 5320 5319 5317 5315 5314 5313 5311 5310 5309 5308 5307 5307 5306 5305 5305 5305 5305 5305 5305 5305 5305 5304 5304 5305 5305 5306 5307 5308 5309 5310 5311 5313 5315 5318 5319 5321 5323 5324
5319 5317 5316 5314 5313 5312 5310 5308 5307 5305 5304 5303 5301 5300 5299 5298 5297 5297 5296 5296 5296 5296 5296 5296 5297 5297 5297 5297 5298 5298 5299 5300 5302 5303 5304 5305 5307 5309 5311 5312 5314 5316 5318
5311 5310 5308 5306 5305 5303 5301 5300 5298 5297 5295 5294 5293 5292 5291 5290 5289 5289 5288 5288 5288 5288 5288 5289 5289 5290 5290 5291 5292 5292 5293 5295 5296 5297 5298 5299 5301 5303 5304 5307 5308 5310 5312